SAS271 ENGM-ENBR

Flight info

Callsign SAS271
Flight time 0h 39m
Altitude 28000
Route ATLAP DCT AGEKU DCT PESUR
Aircraft A320/M-SDE3FGHIRWY/LB1

Departure

Time 2026-05-05 14:20
Airport Oslo-Gardermoen International Airport (ENGM)

Arrival

Time 2026-05-05 15:00
Airport Bergen Airport, Flesland (ENBR)
Time Latitude Longitude Altitude Speed Heading
2026-05-05 13:45 60.19478 11.09346 685 ft 0 kts 17°
2026-05-05 14:12 60.19457 11.09332 679 ft 4 kts 21°
2026-05-05 14:12 60.19433 11.09308 681 ft 4 kts 41°
2026-05-05 14:13 60.19420 11.09275 679 ft 4 kts 62°
2026-05-05 14:13 60.19409 11.09236 680 ft 4 kts 65°
2026-05-05 14:13 60.19402 11.09187 679 ft 4 kts 98°
2026-05-05 14:13 60.19404 11.09167 682 ft 0 kts 106°
2026-05-05 14:15 60.19403 11.09180 679 ft 2 kts 99°
2026-05-05 14:16 60.19410 11.09220 681 ft 3 kts 59°
2026-05-05 14:16 60.19420 11.09239 680 ft 2 kts 35°
2026-05-05 14:16 60.19443 11.09242 682 ft 5 kts 347°
2026-05-05 14:16 60.19461 11.09189 683 ft 8 kts 280°
2026-05-05 14:17 60.19471 11.08981 685 ft 20 kts 285°
2026-05-05 14:17 60.19513 11.08686 678 ft 25 kts 286°
2026-05-05 14:17 60.19493 11.08515 677 ft 11 kts 199°
2026-05-05 14:17 60.19409 11.08465 676 ft 14 kts 197°
2026-05-05 14:18 60.19395 11.08457 676 ft 0 kts 197°
2026-05-05 14:18 60.19394 11.08456 676 ft 1 kts 197°
2026-05-05 14:18 60.19339 11.08427 675 ft 14 kts 197°
2026-05-05 14:18 60.19247 11.08362 674 ft 13 kts 211°
2026-05-05 14:19 60.19239 11.08189 672 ft 9 kts 286°
2026-05-05 14:19 60.19261 11.08034 671 ft 14 kts 286°
2026-05-05 14:19 60.19317 11.07867 672 ft 16 kts 340°
2026-05-05 14:19 60.19430 11.07910 673 ft 20 kts 16°
2026-05-05 14:20 60.19761 11.08095 674 ft 82 kts 16°
2026-05-05 14:20 60.20486 11.08512 678 ft 135 kts 17°
2026-05-05 14:20 60.21513 11.09110 835 ft 162 kts 17°
2026-05-05 14:20 60.22574 11.09772 1502 ft 156 kts 12°
2026-05-05 14:21 60.23647 11.10343 2040 ft 166 kts
2026-05-05 14:21 60.24840 11.10961 2288 ft 189 kts 10°
2026-05-05 14:21 60.26207 11.11302 2533 ft 208 kts 351°
2026-05-05 14:21 60.27704 11.10869 2936 ft 232 kts 348°
2026-05-05 14:22 60.29331 11.10156 3549 ft 244 kts 333°
2026-05-05 14:22 60.30570 11.07869 4328 ft 246 kts 296°
2026-05-05 14:22 60.30852 11.04486 5144 ft 252 kts 262°
2026-05-05 14:22 60.30413 11.01045 6078 ft 254 kts 257°
2026-05-05 14:23 60.29970 10.97617 6960 ft 257 kts 257°
2026-05-05 14:23 60.29531 10.94095 7786 ft 261 kts 258°
2026-05-05 14:23 60.29091 10.90528 8698 ft 263 kts 258°
2026-05-05 14:23 60.28646 10.86933 9563 ft 265 kts 257°
2026-05-05 14:24 60.28190 10.83279 10188 ft 276 kts 257°
2026-05-05 14:24 60.27697 10.79359 10392 ft 299 kts 257°
2026-05-05 14:24 60.27165 10.75139 10593 ft 320 kts 258°
2026-05-05 14:24 60.26605 10.70727 11146 ft 328 kts 258°
2026-05-05 14:25 60.26056 10.66294 11837 ft 331 kts 261°
2026-05-05 14:25 60.25872 10.61676 12583 ft 331 kts 270°
2026-05-05 14:25 60.25793 10.57014 13308 ft 334 kts 270°
2026-05-05 14:25 60.25718 10.52316 13987 ft 336 kts 270°
2026-05-05 14:26 60.25644 10.47608 14711 ft 336 kts 270°
2026-05-05 14:26 60.25794 10.42923 15430 ft 334 kts 278°
2026-05-05 14:26 60.26104 10.38349 16148 ft 334 kts 278°
2026-05-05 14:26 60.26419 10.33716 16844 ft 333 kts 278°
2026-05-05 14:27 60.26734 10.29086 17593 ft 333 kts 277°
2026-05-05 14:27 60.27047 10.24450 18322 ft 334 kts 277°
2026-05-05 14:27 60.27358 10.19811 19002 ft 333 kts 277°
2026-05-05 14:27 60.27665 10.15196 19727 ft 332 kts 276°
2026-05-05 14:28 60.27966 10.10604 20448 ft 329 kts 276°
2026-05-05 14:28 60.28263 10.06041 21104 ft 329 kts 276°
2026-05-05 14:28 60.28560 10.01466 21695 ft 329 kts 276°
2026-05-05 14:28 60.28859 9.96887 22287 ft 329 kts 276°
2026-05-05 14:29 60.29155 9.92315 22892 ft 328 kts 276°
2026-05-05 14:29 60.29448 9.87744 23465 ft 328 kts 275°
2026-05-05 14:29 60.29736 9.83251 23877 ft 328 kts 275°
2026-05-05 14:29 60.30027 9.78676 24264 ft 330 kts 275°
2026-05-05 14:30 60.30315 9.74068 24637 ft 332 kts 275°
2026-05-05 14:30 60.30599 9.69491 24846 ft 321 kts 275°
2026-05-05 14:30 60.30877 9.65069 24965 ft 319 kts 275°
2026-05-05 14:30 60.31154 9.60573 25095 ft 329 kts 275°
2026-05-05 14:31 60.31440 9.55936 25331 ft 334 kts 275°
2026-05-05 14:31 60.31728 9.51253 25615 ft 337 kts 275°
2026-05-05 14:31 60.32018 9.46544 25944 ft 339 kts 275°
2026-05-05 14:31 60.32309 9.41793 26302 ft 341 kts 275°
2026-05-05 14:32 60.32601 9.37005 26570 ft 345 kts 275°
2026-05-05 14:32 60.32889 9.32179 26904 ft 348 kts 275°
2026-05-05 14:32 60.33177 9.27315 27240 ft 350 kts 275°
2026-05-05 14:32 60.33468 9.22424 27582 ft 352 kts 275°
2026-05-05 14:33 60.33755 9.17574 27848 ft 353 kts 275°
2026-05-05 14:33 60.34044 9.12641 27909 ft 353 kts 275°
2026-05-05 14:33 60.34332 9.07712 27910 ft 353 kts 275°
2026-05-05 14:33 60.34616 9.02795 27908 ft 353 kts 275°
2026-05-05 14:34 60.34898 8.97865 27906 ft 352 kts 275°
2026-05-05 14:34 60.35176 8.92948 27905 ft 352 kts 275°
2026-05-05 14:34 60.35453 8.88033 27922 ft 352 kts 275°
2026-05-05 14:34 60.35727 8.83117 27924 ft 352 kts 275°
2026-05-05 14:35 60.36002 8.78193 27926 ft 352 kts 275°
2026-05-05 14:35 60.36273 8.73310 27877 ft 352 kts 275°
2026-05-05 14:35 60.36544 8.68398 27884 ft 352 kts 275°
2026-05-05 14:35 60.36816 8.63472 27889 ft 353 kts 275°
2026-05-05 14:36 60.37090 8.58524 27903 ft 353 kts 275°
2026-05-05 14:36 60.37357 8.53645 27908 ft 353 kts 275°
2026-05-05 14:36 60.37623 8.48708 27909 ft 353 kts 275°
2026-05-05 14:36 60.37884 8.43762 27912 ft 353 kts 275°
2026-05-05 14:37 60.38144 8.38811 27912 ft 354 kts 275°
2026-05-05 14:37 60.38401 8.33875 27926 ft 353 kts 275°
2026-05-05 14:37 60.38657 8.28925 27929 ft 353 kts 275°
2026-05-05 14:37 60.38912 8.23986 27928 ft 353 kts 275°
2026-05-05 14:38 60.39164 8.19036 27926 ft 353 kts 275°
2026-05-05 14:38 60.39415 8.14079 27929 ft 354 kts 275°
2026-05-05 14:38 60.39661 8.09191 27937 ft 353 kts 275°
2026-05-05 14:38 60.39916 8.04174 27931 ft 355 kts 275°
2026-05-05 14:39 60.40164 7.99263 27926 ft 356 kts 275°
2026-05-05 14:39 60.40412 7.94279 27924 ft 356 kts 275°
2026-05-05 14:39 60.40657 7.89284 27924 ft 357 kts 275°
2026-05-05 14:39 60.40901 7.84282 27926 ft 357 kts 275°
2026-05-05 14:40 60.41143 7.79278 27929 ft 357 kts 275°
2026-05-05 14:40 60.41382 7.74275 27930 ft 358 kts 275°
2026-05-05 14:40 60.41618 7.69267 27932 ft 358 kts 275°
2026-05-05 14:40 60.41853 7.64240 27678 ft 357 kts 275°
2026-05-05 14:41 60.42084 7.59293 27134 ft 350 kts 275°
2026-05-05 14:41 60.42310 7.54422 26605 ft 343 kts 275°
2026-05-05 14:41 60.42530 7.49649 26085 ft 338 kts 275°
2026-05-05 14:41 60.42743 7.44950 25565 ft 333 kts 275°
2026-05-05 14:42 60.42949 7.40322 25105 ft 328 kts 275°
2026-05-05 14:42 60.43150 7.35818 24586 ft 323 kts 276°
2026-05-05 14:42 60.43352 7.31305 24105 ft 320 kts 276°
2026-05-05 14:42 60.43551 7.26832 23610 ft 317 kts 276°
2026-05-05 14:43 60.43746 7.22403 23064 ft 314 kts 276°
2026-05-05 14:43 60.43940 7.17997 22580 ft 313 kts 276°
2026-05-05 14:43 60.44131 7.13601 22092 ft 314 kts 276°
2026-05-05 14:43 60.44322 7.09175 21618 ft 314 kts 276°
2026-05-05 14:44 60.44510 7.04766 21147 ft 314 kts 276°
2026-05-05 14:44 60.44696 7.00360 20684 ft 314 kts 276°
2026-05-05 14:44 60.44880 6.95999 20233 ft 315 kts 276°
2026-05-05 14:44 60.45066 6.91570 19785 ft 316 kts 276°
2026-05-05 14:45 60.45250 6.87120 19347 ft 317 kts 276°
2026-05-05 14:45 60.45430 6.82666 18904 ft 317 kts 277°
2026-05-05 14:45 60.45610 6.78189 18481 ft 318 kts 277°
2026-05-05 14:45 60.45787 6.73698 18016 ft 319 kts 276°
2026-05-05 14:46 60.45906 6.70714 17719 ft 321 kts 276°
2026-05-05 14:46 60.46083 6.66187 17296 ft 322 kts 276°
2026-05-05 14:46 60.46260 6.61678 16856 ft 321 kts 276°
2026-05-05 14:46 60.46434 6.57182 16404 ft 319 kts 276°
2026-05-05 14:47 60.46606 6.52709 15954 ft 318 kts 276°
2026-05-05 14:47 60.46778 6.48246 15486 ft 317 kts 276°
2026-05-05 14:47 60.46948 6.43792 15021 ft 316 kts 276°
2026-05-05 14:47 60.47115 6.39354 14540 ft 315 kts 276°
2026-05-05 14:48 60.47281 6.34934 14058 ft 314 kts 276°
2026-05-05 14:48 60.47445 6.30532 13541 ft 313 kts 276°
2026-05-05 14:48 60.47604 6.26156 13025 ft 311 kts 276°
2026-05-05 14:48 60.47760 6.21773 12531 ft 310 kts 276°
2026-05-05 14:49 60.47914 6.17475 12047 ft 309 kts 275°
2026-05-05 14:49 60.48070 6.13149 11547 ft 307 kts 275°
2026-05-05 14:49 60.48225 6.08822 11053 ft 306 kts 275°
2026-05-05 14:49 60.48375 6.04551 10761 ft 298 kts 275°
2026-05-05 14:50 60.48518 6.00428 10623 ft 286 kts 275°
2026-05-05 14:50 60.48654 5.96473 10492 ft 276 kts 275°
2026-05-05 14:50 60.48785 5.92650 10351 ft 267 kts 274°
2026-05-05 14:50 60.48910 5.88937 10087 ft 264 kts 274°
2026-05-05 14:51 60.49032 5.85252 9871 ft 261 kts 274°
2026-05-05 14:51 60.49153 5.81574 9731 ft 261 kts 274°
2026-05-05 14:51 60.49273 5.77935 9597 ft 261 kts 274°
2026-05-05 14:51 60.49387 5.74378 9461 ft 261 kts 274°
2026-05-05 14:52 60.49505 5.70698 9304 ft 260 kts 274°
2026-05-05 14:52 60.49624 5.67031 8924 ft 260 kts 274°
2026-05-05 14:52 60.49743 5.63343 8442 ft 262 kts 274°
2026-05-05 14:52 60.49859 5.59662 8139 ft 259 kts 274°
2026-05-05 14:53 60.49974 5.55964 7687 ft 263 kts 274°
2026-05-05 14:53 60.50084 5.52320 7329 ft 255 kts 274°
2026-05-05 14:53 60.50190 5.48782 6707 ft 254 kts 274°
2026-05-05 14:53 60.50296 5.45259 6119 ft 252 kts 274°
2026-05-05 14:54 60.50405 5.41632 5749 ft 252 kts 274°
2026-05-05 14:54 60.50512 5.38094 5291 ft 249 kts 275°
2026-05-05 14:54 60.50617 5.34639 5158 ft 240 kts 275°
2026-05-05 14:54 60.50715 5.31315 5027 ft 232 kts 275°
2026-05-05 14:55 60.50632 5.28141 4890 ft 226 kts 258°
2026-05-05 14:55 60.50035 5.25179 4560 ft 229 kts 242°
2026-05-05 14:55 60.49246 5.22417 4328 ft 224 kts 243°
2026-05-05 14:55 60.48397 5.19696 3823 ft 234 kts 232°
2026-05-05 14:56 60.47146 5.17662 3552 ft 228 kts 211°
2026-05-05 14:56 60.45662 5.16692 3320 ft 221 kts 189°
2026-05-05 14:56 60.44149 5.16805 3041 ft 216 kts 173°
2026-05-05 14:56 60.42699 5.17300 2749 ft 206 kts 173°
2026-05-05 14:57 60.41318 5.17774 2496 ft 195 kts 174°
2026-05-05 14:57 60.40038 5.18207 2217 ft 183 kts 173°
2026-05-05 14:57 60.38817 5.18621 1962 ft 167 kts 174°
2026-05-05 14:57 60.37730 5.18990 1736 ft 152 kts 174°
2026-05-05 14:58 60.36712 5.19332 1514 ft 144 kts 174°
2026-05-05 14:58 60.35716 5.19666 1310 ft 146 kts 174°
2026-05-05 14:58 60.34721 5.19989 1087 ft 146 kts 174°
2026-05-05 14:58 60.33723 5.20345 916 ft 146 kts 174°
2026-05-05 14:59 60.32747 5.20671 705 ft 142 kts 173°
2026-05-05 14:59 60.31781 5.20987 478 ft 139 kts 173°
2026-05-05 14:59 60.30840 5.21305 302 ft 137 kts 173°
2026-05-05 14:59 60.29911 5.21646 169 ft 126 kts 172°
2026-05-05 15:00 60.29169 5.21876 161 ft 83 kts 169°
2026-05-05 15:00 60.28865 5.21979 162 ft 51 kts 171°
2026-05-05 15:00 60.28670 5.22146 162 ft 20 kts 80°
2026-05-05 15:00 60.28682 5.22349 164 ft 13 kts 82°
2026-05-05 15:01 60.28700 5.22480 166 ft 8 kts 64°
2026-05-05 15:01 60.28713 5.22585 168 ft 8 kts 81°
2026-05-05 15:01 60.28722 5.22686 170 ft 7 kts 80°
2026-05-05 15:01 60.28729 5.22775 172 ft 6 kts 81°
2026-05-05 15:02 60.28736 5.22857 173 ft 7 kts 81°
2026-05-05 15:02 60.28740 5.22905 173 ft 2 kts 81°
2026-05-05 15:02 60.28740 5.22908 173 ft 0 kts 81°